Location: Larrial
(48.2758°N, 4.5331°W)
Time: 22:46:18
(UTC+00:00)

METEOR M2 - Visible Passes

Search period start: 01 December 2021 00:00
Search period end: 11 December 2021 00:00
Orbit: 819 x 827 km, 98.4° (Epoch: 01 December)

Date Brightness Start Highest point End Pass type
(mag) Time Alt. Az. Time Alt. Az. Time Alt. Az.
01 Dec ? 17:04:17 10° E 17:07:39 17° NE 17:11:02 10° NNE visible
01 Dec ? 18:41:43 10° SSE 18:47:07 89° W 18:52:33 10° NNW visible
01 Dec ? 20:25:18 10° WSW 20:28:03 14° W 20:30:49 10° NW visible
02 Dec ? 06:56:02 10° NE 07:00:41 29° E 07:05:17 10° SSE visible
02 Dec ? 18:21:54 10° SSE 18:27:13 65° ENE 18:32:34 10° N visible
02 Dec ? 20:03:54 10° SW 20:07:51 21° W 20:11:50 10° NW visible
03 Dec ? 06:36:37 10° NE 06:40:33 20° E 06:44:26 10° SE visible
03 Dec ? 18:02:17 10° SE 18:07:23 45° ENE 18:12:30 10° N visible
03 Dec ? 19:43:04 10° SSW 19:47:43 29° W 19:52:25 10° NNW visible
04 Dec ? 06:17:40 10° NE 06:20:20 14° E 06:23:01 10° ESE visible
04 Dec ? 17:42:52 10° SE 17:47:36 33° ENE 17:52:21 10° N visible
04 Dec ? 19:22:34 10° SSW 19:27:39 42° W 19:32:46 10° NNW visible
05 Dec ? 17:23:41 10° ESE 17:27:53 24° ENE 17:32:04 10° N visible
05 Dec ? 19:02:19 10° S 19:07:38 61° WSW 19:12:59 10° NNW visible
06 Dec ? 07:16:13 10° NNE 07:21:20 43° E 07:26:23 10° S visible
06 Dec ? 17:04:48 10° E 17:08:13 17° NE 17:11:38 10° NNE visible
06 Dec ? 18:42:17 10° SSE 18:47:41 87° WSW 18:53:06 10° NNW visible
06 Dec ? 20:25:59 10° WSW 20:28:38 14° W 20:31:19 10° NW visible
07 Dec ? 06:56:35 10° NNE 07:01:16 30° E 07:05:53 10° SSE visible
07 Dec ? 18:22:28 10° SSE 18:27:47 66° ENE 18:33:08 10° N visible
07 Dec ? 20:04:33 10° SW 20:08:26 20° W 20:12:21 10° NW visible
08 Dec ? 06:37:09 10° NE 06:41:08 21° E 06:45:05 10° SE visible
08 Dec ? 18:02:50 10° SE 18:07:57 46° ENE 18:13:04 10° N visible
08 Dec ? 19:43:42 10° SSW 19:48:18 29° W 19:52:57 10° NW visible
09 Dec ? 06:18:09 10° NE 06:20:56 14° E 06:23:42 10° ESE visible
09 Dec ? 17:43:25 10° SE 17:48:10 33° ENE 17:52:56 10° N visible
09 Dec ? 19:23:11 10° SSW 19:28:14 41° W 19:33:20 10° NNW visible
10 Dec ? 17:24:13 10° ESE 17:28:26 24° ENE 17:32:40 10° N visible
10 Dec ? 19:02:54 10° S 19:08:13 60° W 19:13:33 10° NNW visible
